RH
60 77 68 52 50 50 52 71 83 77 67 76 83 86 80 82 82 85 85 84 84 84 84 88 91 93 96 95 96 100 100 100 100 100 100 100 96 92 87 84 86 85 89 92
63 86 64 50 46 44 60 76 89 75 68 72 82 87 80 82 82 83 86 85 82 79 78 81 87 92 95 93 95 99 100 100 100 100 100 100 100 99 96 94 93 89 87 84
68 62 53 48 50 51 61 64 90 72 75 73 77 84 90 80 80 80 84 84 82 75 71 71 73 83 90 92 93 98 98 100 100 100 100 100 100 100 100 100 99 95 94 90
52 48 55 56 53 49 59 56 64 79 71 79 77 76 93 84 83 76 80 81 79 71 63 60 60 64 77 87 87 89 96 100 100 100 100 100 100 100 100 100 99 98 95 93
56 61 63 59 52 46 54 59 65 70 75 75 88 80 82 83 90 80 80 82 77 69 58 50 48 49 52 61 75 81 79 83 88 93 97 97 95 93 92 92 91 90 86 84
48 46 52 52 49 42 54 61 65 67 68 84 74 73 73 88 75 74 79 80 72 65 53 41 36 35 36 38 42 47 61 70 67 67 66 69 69 67 64 64 62 61 59 58
54 55 45 44 63 58 57 64 89 91 93 80 79 82 56 69 66 67 76 75 66 58 49 37 31 27 26 24 24 25 26 30 32 36 41 39 38 37 34 32 31 26 27 28
75 79 60 51 56 68 68 50 72 79 89 73 77 84 71 69 67 69 74 70 64 54 40 32 29 25 23 21 20 19 19 18 18 18 18 17 17 17 16 16 15 15 14 14
74 62 51 51 48 47 64 60 45 66 74 83 83 80 84 68 72 72 69 67 66 54 38 30 26 24 22 20 19 18 18 17 16 16 15 15 14 14 13 12 12 11 10 10
78 89 62 52 47 47 55 44 57 67 88 89 86 80 66 86 80 69 64 68 72 56 38 31 26 23 22 21 20 18 17 16 15 14 13 12 12 11 10 9 8 8 8 8
82 96 78 79 77 69 63 58 57 46 62 62 74 66 60 63 67 70 64 71 70 54 38 30 27 24 22 20 19 17 15 14 12 11 10 9 9 9 9 9 9 9 9 10
80 99 96 79 52 64 82 60 48 60 79 86 79 71 74 70 61 64 65 72 61 49 37 30 26 24 21 18 16 14 12 11 10 10 10 10 10 11 12 13 13 14 13 13
91 99 96 93 88 87 97 95 91 89 87 78 85 77 71 63 62 62 68 75 66 47 37 29 24 21 18 15 13 12 12 11 11 12 12 14 15 16 15 15 13 10 7 6
92 100 96 70 71 77 92 94 95 95 97 86 77 92 94 76 69 66 71 75 62 44 34 27 21 17 15 13 12 12 12 14 15 16 17 17 15 12 8 6 6 6 6 6
96 97 92 64 61 64 77 77 93 98 96 97 89 84 88 81 77 76 84 80 64 46 32 23 17 14 14 14 14 14 16 18 18 17 13 8 6 6 6 7 7 8 8 9
98 97 83 81 56 61 77 78 83 93 94 94 94 86 87 79 81 91 95 87 65 49 33 22 22 25 24 19 16 18 19 18 11 7 7 7 8 8 8 9 10 12 14 15
97 96 96 95 88 92 95 92 86 92 91 86 93 91 91 94 90 97 99 83 79 83 50 32 30 31 33 27 18 19 14 8 8 8 9 10 9 10 12 14 16 18 19 19
96 96 95 95 95 95 95 86 90 85 91 91 91 93 92 94 96 96 96 94 95 68 59 57 53 52 44 28 19 13 8 8 9 10 11 12 13 15 18 20 22 24 25 26
97 96 95 95 94 93 93 93 94 92 94 93 94 95 97 96 96 96 96 94 63 58 54 54 50 46 36 20 12 9 10 10 11 12 14 17 19 20 22 24 26 28 30 31
95 96 95 95 95 94 95 92 90 89 92 94 94 94 94 95 90 90 77 66 49 48 50 49 48 26 17 11 10 10 11 13 15 17 18 20 23 25 26 28 30 31 34 36
93 94 95 94 94 84 88 92 85 79 79 94 89 90 77 75 80 68 63 52 55 56 48 27 19 12 12 12 12 12 14 17 20 20 21 22 24 25 26 27 28 30 32 33
93 94 94 95 87 61 100 83 80 94 96 89 80 59 56 62 70 65 62 59 36 24 17 12 11 12 14 15 15 15 16 19 20 21 21 21 21 22 24 25 25 25 27 28
93 96 92 99 99 98 100 98 98 92 88 75 51 30 22 35 38 30 25 21 16 13 14 13 13 14 16 18 18 18 21 25 29 32 36 38 39 39 40 41 41 40 37 35
96 89 96 99 98 98 100 98 88 78 66 54 34 22 21 20 22 16 15 15 14 14 15 16 17 21 30 45 55 64 66 70 72 73 73 75 75 75 74 77 80 82 80 74
97 85 92 100 99 97 98 86 74 63 53 35 24 21 16 12 14 14 15 16 18 22 33 48 56 57 57 60 62 67 74 79 80 81 80 81 84 85 86 87 90 92 88 96
97 92 93 88 71 85 87 72 61 49 28 22 14 14 15 15 16 18 24 40 54 58 58 58 61 63 64 61 53 54 56 61 64 67 71 77 85 88 90 91 87 86 98 100
Wind_Speed
5 3 10 15 4 5 7 7 8 3 3 6 6 9 8 6 6 7 6 6 6 6 6 6 5 4 5 4 4 4 5 10 14 15 16 14 10 9 7 5 2 1 3 5
4 16 6 9 8 7 6 9 4 4 2 5 7 8 6 8 4 7 8 7 6 6 6 6 6 6 6 7 6 7 7 9 13 13 13 13 11 10 8 7 6 4 2 1
9 3 11 7 6 8 4 9 8 6 6 6 9 3 8 6 5 8 8 9 9 8 7 7 7 7 8 8 9 9 9 10 11 12 12 12 12 11 9 8 5 4 3 2
3 2 14 8 8 6 6 5 12 18 10 5 2 4 6 8 9 14 13 13 12 11 10 9 9 9 10 11 10 10 11 11 11 11 11 11 11 10 10 8 7 4 4 4
8 8 8 11 12 7 4 12 10 9 4 5 4 2 2 9 12 17 19 16 16 14 12 11 11 11 11 12 11 11 12 12 13 11 12 11 11 10 9 7 6 4 4 4
4 3 8 9 4 11 17 10 8 4 3 2 8 6 5 9 9 15 21 20 19 17 15 13 12 12 12 12 12 12 12 12 12 12 12 11 11 11 10 8 7 6 6 6
2 3 3 6 7 13 6 7 3 2 4 5 7 7 6 5 3 17 28 25 23 19 17 15 14 13 13 13 12 13 12 13 13 12 11 11 10 10 8 8 7 7 7 6
7 4 8 5 8 11 9 12 6 8 6 6 5 7 4 1 0 16 26 31 26 21 18 17 15 14 13 13 12 12 12 12 12 11 11 11 10 9 8 8 8 7 7 8
6 6 1 3 4 13 7 10 8 5 3 3 5 2 3 5 9 20 25 26 23 23 20 18 16 15 14 13 12 11 10 10 10 9 9 8 8 7 7 7 7 8 8 9
2 2 0 3 3 2 8 10 5 3 7 6 3 3 4 14 18 17 23 26 24 23 21 19 16 15 13 12 11 10 9 8 7 7 6 6 6 6 6 7 7 8 9 10
8 5 1 3 4 6 3 6 4 4 6 6 2 5 3 8 19 20 24 25 28 26 23 20 17 15 12 11 9 7 6 5 5 4 4 5 5 6 6 8 9 10 11 12
12 4 4 2 2 2 1 2 17 9 7 0 1 4 4 3 22 28 28 27 30 26 23 20 16 14 12 9 8 6 4 3 3 3 4 5 6 8 9 11 12 13 14 16
5 4 4 1 2 2 4 4 2 4 2 9 5 4 4 13 20 24 28 27 28 28 24 19 16 13 10 8 6 4 2 1 2 3 5 7 9 11 12 14 15 16 16 16
5 5 5 11 3 4 7 7 7 7 6 6 10 5 6 14 18 24 26 30 32 28 24 19 16 12 10 7 5 2 0 2 4 6 8 10 12 13 14 14 14 14 14 14
3 4 5 3 2 2 2 6 12 15 12 8 4 8 15 18 18 25 28 31 31 28 22 19 15 12 9 6 3 1 3 5 7 9 11 12 12 12 11 11 12 13 14 15
2 1 2 1 3 3 3 1 7 2 3 4 4 1 3 21 25 26 28 30 31 28 24 20 16 11 6 2 1 3 6 8 10 10 10 10 9 10 11 12 13 15 17 18
5 5 3 1 5 5 4 8 7 3 2 5 7 4 13 17 22 25 27 30 31 28 24 20 14 9 4 3 6 7 9 9 9 8 9 10 11 12 13 15 16 18 19 20
4 4 2 3 3 5 1 2 2 5 4 2 5 11 16 20 22 26 29 32 26 22 19 17 13 10 6 8 11 10 8 9 9 9 11 12 14 15 16 18 19 20 21 22
2 3 3 4 3 2 2 3 5 5 4 2 8 12 22 29 24 15 22 21 19 17 15 14 11 8 7 11 11 9 9 11 11 12 14 16 18 19 19 20 21 22 23 24
2 2 2 3 4 7 1 1 2 1 2 11 13 18 25 25 8 5 22 20 17 13 12 10 8 7 7 9 10 11 12 14 13 16 18 20 21 22 23 24 25 26 27 28
3 1 2 3 1 0 0 2 1 4 1 16 21 22 21 5 6 28 22 17 14 12 9 6 4 4 6 9 12 14 16 16 17 20 21 22 23 26 27 29 29 30 30 31
3 4 2 2 0 4 4 1 3 3 18 23 29 23 24 27 30 27 20 16 11 6 2 2 3 5 8 12 15 17 18 19 21 23 25 26 27 28 31 32 33 33 34 34
1 1 3 1 1 2 5 2 7 13 25 26 29 28 28 29 25 20 15 10 7 4 0 4 6 7 10 13 17 20 20 23 25 26 27 28 29 30 31 33 33 34 33 34
2 1 3 2 2 4 4 12 19 27 31 28 26 23 19 23 18 16 12 9 5 2 2 5 8 10 12 14 16 19 21 23 26 27 28 29 30 31 31 32 32 33 33 33
1 2 5 4 3 12 10 22 28 31 29 26 22 20 19 17 17 13 10 6 3 1 4 7 11 14 15 18 19 21 24 25 27 28 29 29 30 30 31 30 30 31 31 30
1 3 2 3 14 8 16 29 31 29 25 21 20 21 18 15 14 11 8 6 4 5 8 11 14 17 19 21 22 23 24 26 28 29 29 29 29 30 30 30 32 29 27 25
Wind_Direction
175 134 193 187 167 115 115 108 113 94 86 87 99 138 160 153 141 138 129 117 108 100 86 87 101 108 103 108 121 141 148 162 169 165 159 165 163 153 173 191 167 310 345 358
97 216 168 133 151 120 99 116 93 83 114 96 155 156 167 179 183 178 163 148 145 134 123 113 109 115 123 110 107 120 136 147 167 167 161 156 153 157 156 146 147 146 163 285
184 266 140 136 141 132 159 156 173 153 133 62 131 211 198 193 173 169 170 172 168 164 151 132 122 119 118 122 114 112 119 126 142 153 148 144 143 138 136 139 135 111 97 77
268 155 161 154 182 148 170 173 144 141 154 192 218 257 218 192 194 198 184 177 170 166 158 146 137 129 122 121 116 109 109 115 124 130 141 145 143 138 120 115 109 97 75 55
214 156 154 175 194 152 181 131 136 152 94 130 203 245 131 155 214 208 187 180 179 173 165 153 144 135 124 117 122 118 110 115 115 118 126 127 127 119 112 104 94 84 64 44
167 170 158 193 133 163 135 94 77 92 123 253 178 198 210 192 208 182 177 181 177 173 166 156 144 135 130 121 119 115 119 119 115 113 107 111 107 103 101 99 94 86 66 50
137 185 193 135 85 141 127 141 118 180 195 228 167 179 269 163 194 177 169 170 175 174 169 161 153 145 136 132 127 120 115 114 111 111 111 108 105 101 96 89 79 69 58 50
166 212 173 188 163 177 192 176 166 202 198 197 159 223 238 25 108 163 164 166 169 167 167 162 158 151 143 137 131 124 119 114 110 107 103 97 91 87 77 68 58 47 39 31
177 228 156 156 150 152 202 210 183 109 47 117 194 283 194 136 132 145 151 155 161 169 166 163 157 153 147 139 134 128 122 116 110 103 93 86 77 68 59 47 36 25 18 12
275 213 268 139 135 214 174 167 177 195 179 225 220 258 226 197 181 166 165 162 164 168 166 163 159 153 150 145 137 131 124 118 108 96 87 75 61 47 35 24 12 3 357 353
169 202 319 97 205 176 156 185 216 200 202 221 211 242 16 209 179 170 165 164 167 169 167 164 162 158 152 149 143 134 125 112 98 82 63 45 28 14 4 356 349 343 339 336
187 168 177 170 127 62 346 227 204 214 210 232 150 241 336 288 162 160 162 166 173 171 168 167 165 162 157 151 146 140 126 102 71 40 19 4 354 347 341 336 333 330 327 325
178 204 144 25 310 33 236 183 106 105 74 208 191 219 352 139 150 163 155 160 167 169 168 167 166 163 159 155 151 146 131 84 12 349 341 336 332 328 325 323 322 321 321 321
234 193 218 232 167 134 175 188 200 186 214 201 229 168 174 161 159 157 159 161 168 168 168 167 166 162 159 156 156 158 175 327 326 323 318 317 315 314 314 316 317 318 320 321
178 264 184 147 125 91 152 172 184 206 210 208 213 183 187 175 162 156 151 158 165 167 166 165 161 154 152 152 155 244 303 311 311 311 309 309 310 311 313 315 317 319 319 319
192 234 89 95 113 128 157 264 157 94 112 96 111 184 232 140 139 146 152 158 167 171 170 166 163 158 152 136 319 310 306 303 303 304 300 302 308 311 313 315 316 314 313 313
181 156 139 236 125 122 267 205 195 120 95 136 178 142 142 140 147 151 150 166 175 178 180 181 184 193 218 284 304 302 299 295 298 305 306 310 311 310 307 306 307 306 306 307
172 128 77 123 176 219 22 14 354 104 74 69 82 137 148 138 136 152 170 174 177 181 187 195 206 218 241 286 291 297 302 302 309 312 305 304 301 302 302 302 304 305 306 307
174 133 129 169 206 338 346 206 162 177 171 168 131 115 115 130 130 138 166 168 172 179 188 197 207 218 262 282 292 305 310 303 308 301 297 299 298 298 297 297 297 298 299 300
86 76 137 167 188 208 214 56 13 260 261 157 145 140 139 145 144 154 164 167 169 179 182 188 204 256 279 289 298 306 304 303 309 296 297 295 296 297 297 297 297 298 298 299
113 70 150 182 187 303 85 129 217 131 230 137 140 139 143 107 124 151 159 161 162 160 173 215 259 290 298 299 302 305 302 308 297 293 293 293 295 296 295 294 295 295 295 295
145 148 162 100 181 241 9 167 212 124 122 135 136 133 119 118 127 139 144 147 153 163 189 277 310 312 304 300 297 297 301 301 297 296 295 295 295 294 294 294 295 294 294 293
188 117 144 346 55 345 350 63 128 128 131 137 131 126 121 122 127 133 136 135 129 122 172 297 295 292 295 298 299 302 306 302 300 299 299 297 294 294 294 294 295 294 294 293
356 291 89 162 58 42 57 113 122 133 132 133 126 122 123 123 123 123 123 125 127 138 266 294 300 303 311 309 309 308 305 302 300 298 297 297 296 296 295 294 294 294 294 294
235 140 132 82 71 98 82 122 127 128 128 128 124 120 119 121 121 122 124 123 112 37 336 326 321 319 317 313 311 307 307 307 304 302 303 302 301 300 298 296 296 296 294 293
231 164 177 164 171 111 145 132 129 129 126 123 129 125 122 121 117 116 107 86 49 8 338 327 322 320 319 317 315 315 312 310 310 310 311 311 309 308 307 307 305 301 297 286